Location: Monfort
(47.1967°N, 0.2115°W)
Time: 02:19:30
(UTC+00:00)

Lacrosse 5 - Pass Details

Date: 24 October 2020
Orbit: 714 x 725 km, 57.0° (Epoch: 30 November)

Event Time Altitude Azimuth Distance (km) Brightness Sun altitude
Rises 17:25:59 0° 258° (WSW) 3,112 8.2 -5.7°
Reaches altitude 10° 17:28:29 10° 266° (W) 2,193 6.2 -6.1°
Maximum altitude 17:33:14 40° 336° (NNW) 1,042 2.9 -6.9°
Drops below altitude 10° 17:38:01 10° 47° (NE) 2,199 3.9 -7.7°
Enters shadow 17:39:01 - 51° (NE) 2,558 4.2 -7.8°
